GW2402 Weather Reports


Display with metric or nautical units.
time (UTC)temp
F
wind
direction
speed
MPH
gust
MPH
rain 1hr
in
rain 24hr
in
rain mn
in
humidity
%
barometer
mb
20260507234550 68 0 0.0 1.0 0.00 0.00 0.00 66 1015.4
20260507233043 69 0 0.0 1.0 0.00 0.00 0.00 66 1015.4
20260507231549 69 53 0.0 1.0 0.00 0.00 0.00 67 1015.0
20260507230047 69 0 0.0 1.0 0.00 0.00 0.00 66 1015.3
20260507224547 69 0 0.0 1.0 0.00 0.00 0.00 66 1015.6
20260507223046 68 0 0.0 1.0 0.00 0.00 0.00 67 1015.9
20260507221548 68 0 0.0 1.0 0.00 0.00 0.00 67 1016.0
20260507220049 68 0 0.0 1.0 0.00 0.00 0.00 67 1015.8
20260507214550 68 293 0.0 1.0 0.00 0.00 0.00 68 1015.7
20260507213045 68 101 0.0 1.0 0.00 0.00 0.00 68 1015.7
20260507211554 68 0 0.0 2.0 0.00 0.00 0.00 67 1015.9
20260507210100 67 0 0.0 3.0 0.00 0.00 0.00 68 1015.6
20260507204549 67 0 0.0 3.0 0.00 0.00 0.00 69 1015.7
20260507203055 67 0 0.0 4.0 0.00 0.00 0.00 70 1016.4
20260507201549 67 99 0.0 2.0 0.00 0.00 0.00 70 1016.7
20260507200051 67 100 0.0 1.0 0.00 0.00 0.00 72 1016.5
20260507194554 66 0 0.0 2.0 0.00 0.00 0.00 75 1016.6
20260507193046 65 269 0.0 1.0 0.00 0.00 0.00 78 1016.8
20260507191545 65 0 0.0 0.0 0.00 0.00 0.00 74 1017.2
20260507190052 66 0 0.0 1.0 0.00 0.00 0.00 72 1017.3
20260507184548 66 0 0.0 1.0 0.00 0.00 0.00 73 1017.5
20260507183051 66 0 0.0 1.0 0.00 0.00 0.00 73 1017.7
20260507181552 65 110 0.0 2.0 0.00 0.00 0.00 74 1017.6
20260507180053 64 244 0.0 3.0 0.00 0.00 0.00 75 1016.9
20260507174605 63 0 0.0 1.0 0.00 0.00 0.00 76 1017.6
20260507173045 63 0 0.0 1.0 0.00 0.00 0.00 77 1017.3
20260507171603 62 0 0.0 1.0 0.00 0.00 0.00 79 1017.4
20260507170049 62 0 0.0 1.0 0.00 0.00 0.00 79 1017.9
20260507164552 61 0 0.0 2.0 0.00 0.00 0.00 80 1018.0
20260507163051 61 0 0.0 3.0 0.00 0.00 0.00 80 1018.1
20260507161550 61 86 0.0 2.0 0.00 0.00 0.00 80 1018.9
20260507160058 61 257 0.0 1.0 0.00 0.00 0.00 80 1017.8
20260507154554 61 0 0.0 1.0 0.00 0.00 0.00 81 1018.6
20260507153051 61 97 0.0 2.0 0.00 0.00 0.00 81 1018.6
20260507151548 61 0 0.0 4.0 0.00 0.00 0.00 81 1018.6
20260507150043 61 240 0.0 2.0 0.00 0.00 0.00 82 1018.5
20260507144553 61 0 1.0 5.0 0.00 0.00 0.00 82 1018.3
20260507143050 62 0 0.0 3.0 0.00 0.00 0.00 82 1018.3
20260507141551 61 0 0.0 3.0 0.00 0.00 0.00 83 1018.3
20260507134549 61 106 0.0 2.0 0.00 0.00 0.00 84 1017.9
20260507133055 61 0 0.0 3.0 0.00 0.00 0.00 84 1017.7
20260507131548 61 0 0.0 4.0 0.00 0.00 0.00 84 1017.3
20260507124600 61 273 0.0 3.0 0.00 0.00 0.00 84 1017.7
20260507123044 60 0 0.0 4.0 0.00 0.00 0.00 84 1017.6
20260507121549 60 0 0.0 1.0 0.00 0.00 0.00 85 1017.3
20260507120046 60 95 0.0 3.0 0.00 0.00 0.00 85 1016.9
20260507114606 60 0 0.0 2.0 0.00 0.00 0.00 85 1016.7
20260507113055 60 101 0.0 3.0 0.00 0.00 0.00 85 1016.8
20260507111542 60 278 0.0 2.0 0.00 0.00 0.00 85 1016.6
20260507110051 60 290 0.0 3.0 0.00 0.00 0.00 85 1016.5
20260507104553 60 147 0.0 3.0 0.00 0.00 0.00 85 1016.6
20260507103047 61 0 0.0 3.0 0.00 0.00 0.00 84 1016.2
20260507101551 61 0 0.0 3.0 0.00 0.00 0.00 84 1016.2
20260507100044 61 0 0.0 1.0 0.00 0.00 0.00 84 1016.1
20260507094549 61 0 0.0 1.0 0.00 0.00 0.00 83 1016.1
20260507093047 61 0 0.0 1.0 0.00 0.00 0.00 83 1015.5
20260507091546 61 96 0.0 1.0 0.00 0.00 0.00 83 1015.8
20260507090045 61 0 0.0 1.0 0.00 0.00 0.00 83 1015.7
20260507084549 62 0 0.0 1.0 0.00 0.00 0.00 83 1015.4
20260507083048 62 0 0.0 0.0 0.00 0.00 0.00 83 1015.7
20260507081547 62 0 0.0 1.0 0.00 0.00 0.00 82 1015.2
20260507080054 62 0 0.0 1.0 0.00 0.00 0.00 82 1015.0
20260507074601 62 0 0.0 0.0 0.00 0.00 0.00 82 1014.6
20260507073049 62 0 0.0 0.0 0.00 0.00 0.00 82 1014.8
20260507071552 62 0 0.0 1.0 0.00 0.00 0.00 82 1014.7
20260507070105 62 0 0.0 1.0 0.00 0.00 0.00 81 1015.1
20260507064554 62 0 0.0 1.0 0.00 0.00 0.00 81 1015.3
20260507063056 62 0 0.0 2.0 0.00 0.00 0.00 80 1015.1
20260507061550 63 0 0.0 1.0 0.00 0.00 0.00 80 1015.1
20260507060045 63 0 0.0 3.0 0.00 0.00 0.00 80 1014.8
20260507054548 63 0 0.0 0.0 0.00 0.00 0.00 80 1014.9
20260507053047 63 0 0.0 1.0 0.00 0.00 0.00 80 1014.8
20260507051545 63 0 0.0 2.0 0.00 0.00 0.00 80 1015.0
20260507050053 63 0 0.0 1.0 0.00 0.00 0.00 80 1014.8
20260507044542 63 146 0.0 2.0 0.00 0.00 0.00 80 1014.6
20260507043048 63 0 0.0 2.0 0.00 0.00 0.00 80 1015.0
20260507041548 64 0 0.0 2.0 0.00 0.00 0.00 79 1014.6
20260507040046 64 0 0.0 2.0 0.00 0.00 0.00 80 1014.6
20260507034547 64 0 0.0 3.0 0.00 0.00 0.00 79 1014.6
20260507033042 64 0 0.0 1.0 0.00 0.00 0.00 80 1014.7
20260507031546 64 0 0.0 1.0 0.00 0.00 0.00 80 1014.6
20260507030048 64 87 0.0 3.0 0.00 0.00 0.00 80 1014.4
20260507024545 65 0 0.0 2.0 0.00 0.00 0.00 79 1013.8
20260507023043 65 0 0.0 3.0 0.00 0.00 0.00 79 1014.3
20260507021549 65 0 0.0 3.0 0.00 0.00 0.00 80 1013.7
20260507020051 65 0 0.0 2.0 0.00 0.00 0.00 80 1013.9
20260507014552 65 0 0.0 1.0 0.00 0.00 0.00 79 1013.4
20260507013158 65 0 0.0 3.0 0.00 0.00 0.00 79 1012.9
20260507011544 65 0 0.0 2.0 0.00 0.00 0.00 79 1012.8
20260507010058 65 0 0.0 1.0 0.00 0.00 0.00 79 1012.8
20260507004550 65 0 0.0 1.0 0.00 0.00 0.00 78 1012.4
20260507003046 65 0 0.0 4.0 0.00 0.00 0.00 78 1012.3
20260507001550 65 0 0.0 5.0 0.00 0.00 0.00 78 1012.4
20260507000047 66 278 0.0 2.0 0.00 0.00 0.00 78 1012.4